Home   Weather   Goch   Past weeks

Flag for Germany Past Weather in Goch, North Rhine-Westphalia, Germany — Yesterday and Last 2 Weeks

Now
52 °F

Passing clouds.


Feels Like: 48 °F
Forecast: 39 / 47 °F
Wind: 10 mph from South

Location: Niederrhein

Current Time: Feb 27, 2017 at 5:57:06 am

Latest Report: Feb 27, 2017 at 5:20 am


Visibility: N/A

Pressure: 29.65 "Hg

Humidity: 77%

Dew Point: 45 °F

Location of GochLocation

Past Weather in Goch — Graph

°F

Goch Temperature Yesterday

Maximum temperature yesterday: 52 °F (at 11:20 pm)
Minimum temperature yesterday: 45 °F (at 6:20 am)
Average temperature yesterday: 48 °F

High & Low Weather Summary for the Past Weeks

 TemperatureHumidityPressure
High59 °F (Feb 15, 3:20 pm)94% (Feb 20, 3:50 pm)30.51 "Hg (Feb 20, 3:50 pm)
Low30 °F (Feb 13, 6:20 am)50% (Feb 14, 12:20 pm)29.21 "Hg (Feb 23, 3:20 pm)
Average45 °F80%30.09 "Hg
* Reported Feb 11 11:20 pm — Feb 26 11:50 pm, Goch, Weather by CustomWeather, © 2017

Note: Actual official high and low records may vary slightly from our data, if they occured in-between our weather recording intervals... More about our weather records

Advertising

Goch Weather History for the Previous 24 Hours

Scroll right to see more
 ConditionsComfort  
Time TempWeatherWind HumidityBarometerVisibility
11:50 pm
Sun, Feb 26
52 °FPassing clouds.12 mph77%29.74 "HgN/A
11:20 pm52 °FPassing clouds.13 mph77%29.77 "HgN/A
10:50 pm50 °FClear.13 mph82%29.77 "Hg10 mi
10:20 pm50 °FPassing clouds.10 mph82%29.77 "HgN/A
9:50 pm50 °FPassing clouds.12 mph82%29.77 "HgN/A
9:20 pm50 °FPassing clouds.12 mph82%29.80 "HgN/A
8:50 pm50 °FPassing clouds.12 mph82%29.80 "HgN/A
8:20 pm50 °FPassing clouds.12 mph82%29.80 "HgN/A
7:50 pm50 °FClear.10 mph82%29.80 "Hg10 mi
7:20 pm50 °FPassing clouds.13 mph82%29.80 "HgN/A
6:50 pm50 °FPartly sunny.10 mph82%29.80 "HgN/A
6:20 pm50 °FPartly sunny.10 mph82%29.80 "HgN/A
5:20 pm50 °FPartly sunny.9 mph88%29.80 "HgN/A
4:50 pm50 °FPartly sunny.12 mph88%29.83 "HgN/A
4:20 pm50 °FPartly sunny.12 mph82%29.83 "HgN/A
3:50 pm50 °FPartly sunny.13 mph82%29.83 "HgN/A
3:20 pm50 °FPartly sunny.12 mph82%29.83 "HgN/A
2:50 pm50 °FPartly sunny.15 mph82%29.83 "HgN/A
2:20 pm50 °FPartly sunny.15 mph82%29.83 "HgN/A
1:50 pm50 °FPartly sunny.12 mph82%29.83 "HgN/A
1:20 pm48 °FPartly sunny.9 mph87%29.86 "HgN/A
12:50 pm48 °FPartly sunny.10 mph82%29.86 "HgN/A
12:20 pm46 °FPartly sunny.13 mph87%29.86 "HgN/A
11:50 am46 °FPartly sunny.10 mph87%29.86 "HgN/A
11:20 am46 °FPartly sunny.13 mph82%29.86 "HgN/A
10:50 am46 °FPartly sunny.14 mph82%29.86 "HgN/A
10:20 am46 °FLight rain. Partly sunny.12 mph82%29.86 "HgN/A
9:50 am45 °FPartly sunny.13 mph87%29.86 "HgN/A
9:20 am45 °FPartly sunny.14 mph87%29.86 "HgN/A
8:50 am45 °FPartly sunny.14 mph81%29.86 "HgN/A
8:20 am45 °FPassing clouds.15 mph81%29.86 "HgN/A
7:50 am45 °FPassing clouds.10 mph76%29.86 "HgN/A
7:20 am45 °FPassing clouds.9 mph76%29.83 "HgN/A
6:50 am45 °FPassing clouds.12 mph81%29.83 "Hg6 mi
6:20 am45 °FPassing clouds.12 mph76%29.83 "HgN/A
5:20 am46 °FPassing clouds.10 mph71%29.86 "HgN/A
Weather by CustomWeather, © 2017

See weather overviewHow to use our weather pages